Flag for India Weather past 2 weeks in Varanasi, Uttar Pradesh, India

Now
84 °F

Haze.


Feels Like: 92 °F
Forecast: 82 / 92 °F
Wind: 6 mph from Southwest

Location: Varanasi / Babatpur

Current Time: Jul 30, 2015 at 2:35:27 AM

Latest Report: Jul 30, 2015 at 12:00 AM


Visibility: 3 mi

Pressure: 29.56 "Hg

Humidity: 74%

Dew point: 75 °F

Location of VaranasiLocation

Historic Weather in Varanasi — Graph

°F

Varanasi temperature yesterday

Maximum temperature yesterday: 95 °F (at 3:00 PM)
Minimum temperature yesterday: 82 °F (at 4:00 AM)
Average temperature yesterday: 89 °F

Past Weeks' High & Low Weather Summary

 TemperatureHumidityPressure
High99 °F (Jul 27, 4:00 PM)100% (Jul 16, 6:00 AM)29.65 "Hg (Jul 16, 6:00 AM)
Low77 °F (Jul 16, 9:00 AM)45% (Jul 23, 4:00 AM)29.33 "Hg (Jul 15, 6:00 PM)
Average87 °F78%29.52 "Hg
* Reported Midnight between Jul 14 and Jul 15 — Midnight between Jul 29 and Jul 30, Varanasi, Weather by CustomWeather, © 2015

Note: Actual official high and low records may vary slightly from our data, if they occured in-between our weather recording intervals... More about our weather records

Advertising

Varanasi weather history for previous 24 hours

 ConditionsComfort  
Time TempWeatherWind HumidityBarometerVisibility
12:00 AM
Thu, Jul 30
84 °FHaze.6 mph74%29.56 "Hg3 mi
10:00 PM
Wed, Jul 29
88 °FHaze.3 mph66%29.56 "Hg3 mi
9:00 PM88 °FPassing clouds.2 mph70%29.53 "Hg3 mi
7:00 PM90 °FScattered clouds.No wind67%29.53 "Hg4 mi
6:00 PM91 °FPassing clouds.2 mph63%29.50 "Hg4 mi
5:00 PM91 °FScattered clouds.7 mph56%29.50 "Hg4 mi
4:00 PM95 °FScattered clouds.7 mph47%29.50 "Hg4 mi
3:00 PM95 °FScattered clouds.6 mph50%29.53 "Hg4 mi
2:00 PM93 °FScattered clouds.8 mph53%29.56 "Hg4 mi
1:00 PM91 °FPassing clouds.9 mph63%29.56 "Hg4 mi
12:00 PM90 °FPassing clouds.9 mph67%29.59 "Hg4 mi
11:00 AM90 °FHaze.9 mph63%29.62 "Hg3 mi
10:00 AM88 °FHaze.8 mph66%29.62 "Hg3 mi
9:00 AM88 °FHaze.9 mph66%29.62 "Hg3 mi
8:00 AM84 °FHaze.6 mph74%29.59 "Hg3 mi
7:00 AM82 °FHaze.6 mph79%29.59 "Hg3 mi
5:00 AM82 °FHaze.5 mph79%29.56 "Hg2 mi
4:00 AM82 °FHaze.6 mph79%29.56 "Hg2 mi
Weather by CustomWeather, © 2015

See weather overviewHow to use our weather pages